TimeMDT,TemperatureF,Dew PointF,Humidity,Sea Level PressureIn,VisibilityMPH,Wind Direction,Wind SpeedMPH,Gust SpeedMPH,PrecipitationIn,Events,Conditions,WindDirDegrees,DateUTC
12:15 AM,62.6,10.4,13,30.10,10.0,North,-9999.0,-,N/A,,Clear,0,2013-05-02 06:15:00
12:35 AM,60.8,12.2,15,30.09,10.0,West,10.4,-,N/A,,Clear,280,2013-05-02 06:35:00
12:55 AM,59.0,10.4,15,30.10,10.0,NNE,4.6,-,N/A,,Clear,30,2013-05-02 06:55:00
1:15 AM,59.0,12.2,16,30.10,10.0,West,4.6,-,N/A,,Clear,280,2013-05-02 07:15:00
1:35 AM,59.0,12.2,16,30.10,10.0,NW,6.9,-,N/A,,Clear,310,2013-05-02 07:35:00
1:55 AM,55.4,12.2,18,30.10,10.0,NNW,5.8,-,N/A,,Clear,330,2013-05-02 07:55:00
2:15 AM,55.4,12.2,18,30.10,10.0,NW,5.8,-,N/A,,Clear,310,2013-05-02 08:15:00
2:35 AM,53.6,12.2,19,30.08,10.0,North,-9999.0,-,N/A,,Clear,0,2013-05-02 08:35:00
2:55 AM,53.6,12.2,19,30.10,10.0,North,3.5,-,N/A,,Clear,350,2013-05-02 08:55:00
3:15 AM,55.4,14.0,20,30.10,10.0,WNW,3.5,-,N/A,,Clear,290,2013-05-02 09:15:00
3:35 AM,53.6,12.2,19,30.10,10.0,WNW,5.8,-,N/A,,Clear,300,2013-05-02 09:35:00
3:55 AM,51.8,12.2,21,30.11,10.0,Calm,Calm,-,N/A,,Clear,0,2013-05-02 09:55:00
4:15 AM,51.8,14.0,22,30.11,10.0,NNE,3.5,-,N/A,,Clear,30,2013-05-02 10:15:00
4:35 AM,51.8,12.2,21,30.12,10.0,East,4.6,-,N/A,,Clear,90,2013-05-02 10:35:00
4:55 AM,48.2,12.2,24,30.14,10.0,SE,3.5,-,N/A,,Clear,130,2013-05-02 10:55:00
5:15 AM,50.0,12.2,22,30.17,10.0,SSE,13.8,-,N/A,,Clear,150,2013-05-02 11:15:00
5:35 AM,51.8,19.4,28,30.19,10.0,SSE,12.7,-,N/A,,Clear,160,2013-05-02 11:35:00
5:55 AM,51.8,26.6,38,30.20,7.0,South,13.8,-,N/A,,Scattered Clouds,170,2013-05-02 11:55:00
6:15 AM,51.8,26.6,38,30.21,4.0,South,12.7,20.7,N/A,,Haze,170,2013-05-02 12:15:00
6:35 AM,51.8,26.6,38,30.23,2.0,SSE,16.1,-,N/A,,Haze,160,2013-05-02 12:35:00
6:55 AM,51.8,26.6,38,30.25,2.5,SSE,17.3,23.0,N/A,,Haze,160,2013-05-02 12:55:00
7:15 AM,51.8,26.6,38,30.26,3.0,SSE,18.4,25.3,N/A,,Haze,160,2013-05-02 13:15:00
7:35 AM,51.8,26.6,38,30.27,3.0,SSE,17.3,24.2,N/A,,Haze,160,2013-05-02 13:35:00
7:55 AM,53.6,26.6,35,30.28,3.0,SSE,17.3,21.9,N/A,,Haze,160,2013-05-02 13:55:00
8:15 AM,55.4,26.6,33,30.28,5.0,SSE,17.3,24.2,N/A,,Haze,150,2013-05-02 14:15:00
8:35 AM,55.4,26.6,33,30.29,5.0,SSE,15.0,24.2,N/A,,Haze,150,2013-05-02 14:35:00
8:55 AM,59.0,23.0,25,30.30,10.0,SE,20.7,27.6,N/A,,Clear,130,2013-05-02 14:55:00
9:15 AM,59.0,23.0,25,30.31,5.0,SE,20.7,27.6,N/A,,Haze,130,2013-05-02 15:15:00
9:35 AM,60.8,21.2,22,30.32,4.0,SE,21.9,26.5,N/A,,Haze,130,2013-05-02 15:35:00
9:55 AM,62.6,21.2,20,30.32,5.0,SE,17.3,23.0,N/A,,Haze,130,2013-05-02 15:55:00
10:15 AM,62.6,21.2,20,30.33,5.0,SE,19.6,26.5,N/A,,Haze,140,2013-05-02 16:15:00
10:35 AM,62.6,21.2,20,30.34,5.0,SE,25.3,31.1,N/A,,Haze,130,2013-05-02 16:35:00
10:55 AM,64.4,19.4,18,30.35,3.0,SE,25.3,34.5,N/A,,Haze,130,2013-05-02 16:55:00
11:15 AM,64.4,17.6,16,30.35,4.0,SE,21.9,33.4,N/A,,Haze,140,2013-05-02 17:15:00
11:35 AM,64.4,17.6,16,30.34,2.5,SE,25.3,35.7,N/A,,Haze,130,2013-05-02 17:35:00
11:55 AM,66.2,17.6,15,30.34,3.0,ESE,26.5,36.8,N/A,,Haze,120,2013-05-02 17:55:00
12:15 PM,66.2,17.6,15,30.34,3.0,ESE,25.3,38.0,N/A,,Haze,120,2013-05-02 18:15:00
12:35 PM,68.0,17.6,15,30.33,5.0,ESE,26.5,36.8,N/A,,Haze,120,2013-05-02 18:35:00
12:55 PM,68.0,14.0,12,30.32,7.0,SE,24.2,33.4,N/A,,Overcast,130,2013-05-02 18:55:00
1:15 PM,69.8,14.0,12,30.32,7.0,SE,27.6,34.5,N/A,,Overcast,130,2013-05-02 19:15:00
1:35 PM,69.8,14.0,12,30.31,7.0,SE,26.5,33.4,N/A,,Mostly Cloudy,130,2013-05-02 19:35:00
1:55 PM,69.8,14.0,12,30.30,10.0,SE,26.5,35.7,N/A,,Clear,140,2013-05-02 19:55:00
2:15 PM,69.8,14.0,12,30.30,10.0,SE,26.5,36.8,N/A,,Clear,130,2013-05-02 20:15:00
2:35 PM,69.8,12.2,11,30.29,10.0,ESE,21.9,33.4,N/A,,Clear,120,2013-05-02 20:35:00
2:55 PM,71.6,14.0,11,30.28,10.0,ESE,24.2,32.2,N/A,,Clear,120,2013-05-02 20:55:00
3:15 PM,71.6,14.0,11,30.28,10.0,SE,21.9,33.4,N/A,,Clear,140,2013-05-02 21:15:00
3:35 PM,71.6,14.0,11,30.28,10.0,ESE,23.0,34.5,N/A,,Clear,110,2013-05-02 21:35:00
3:55 PM,71.6,12.2,10,30.27,10.0,ESE,24.2,32.2,N/A,,Clear,120,2013-05-02 21:55:00
4:15 PM,71.6,12.2,10,30.27,10.0,SE,21.9,34.5,N/A,,Clear,130,2013-05-02 22:15:00
4:35 PM,71.6,12.2,10,30.27,10.0,SE,23.0,35.7,N/A,,Clear,130,2013-05-02 22:35:00
4:55 PM,71.6,12.2,10,30.26,10.0,ESE,18.4,29.9,N/A,,Clear,120,2013-05-02 22:55:00
5:15 PM,71.6,12.2,10,30.25,10.0,ESE,21.9,33.4,N/A,,Clear,110,2013-05-02 23:15:00
5:35 PM,69.8,12.2,11,30.25,10.0,ESE,20.7,31.1,N/A,,Clear,110,2013-05-02 23:35:00
5:55 PM,69.8,12.2,11,30.25,10.0,ESE,21.9,34.5,N/A,,Clear,110,2013-05-02 23:55:00
6:15 PM,69.8,12.2,11,30.26,10.0,ESE,23.0,31.1,N/A,,Clear,110,2013-05-03 00:15:00
6:35 PM,68.0,12.2,12,30.26,10.0,ESE,20.7,34.5,N/A,,Clear,110,2013-05-03 00:35:00
6:55 PM,68.0,12.2,12,30.26,10.0,ESE,26.5,35.7,N/A,,Clear,110,2013-05-03 00:55:00
7:15 PM,64.4,12.2,13,30.26,10.0,ESE,24.2,31.1,N/A,,Clear,110,2013-05-03 01:15:00
7:35 PM,64.4,12.2,13,30.26,10.0,ESE,24.2,32.2,N/A,,Clear,110,2013-05-03 01:35:00
7:55 PM,62.6,12.2,14,30.27,10.0,ESE,20.7,27.6,N/A,,Clear,110,2013-05-03 01:55:00
8:15 PM,62.6,12.2,14,30.27,10.0,ESE,16.1,25.3,N/A,,Clear,110,2013-05-03 02:15:00
8:35 PM,60.8,12.2,15,30.28,10.0,ESE,20.7,-,N/A,,Clear,110,2013-05-03 02:35:00
8:55 PM,60.8,19.4,20,30.29,10.0,ESE,16.1,23.0,N/A,,Clear,120,2013-05-03 02:55:00
9:15 PM,59.0,21.2,23,30.31,7.0,SE,21.9,28.8,N/A,,Scattered Clouds,130,2013-05-03 03:15:00
9:35 PM,55.4,21.2,26,30.32,7.0,SE,21.9,29.9,N/A,,Mostly Cloudy,130,2013-05-03 03:35:00
9:55 PM,55.4,21.2,26,30.33,7.0,SE,19.6,27.6,N/A,,Mostly Cloudy,130,2013-05-03 03:55:00
10:15 PM,53.6,21.2,28,30.34,7.0,ESE,21.9,26.5,N/A,,Mostly Cloudy,120,2013-05-03 04:15:00
10:35 PM,53.6,21.2,28,30.34,7.0,ESE,21.9,32.2,N/A,,Scattered Clouds,120,2013-05-03 04:35:00
10:55 PM,53.6,21.2,28,30.35,7.0,ESE,26.5,38.0,N/A,,Clear,120,2013-05-03 04:55:00
11:15 PM,51.8,21.2,30,30.35,7.0,ESE,24.2,33.4,N/A,,Clear,120,2013-05-03 05:15:00
11:35 PM,50.0,21.2,32,30.35,10.0,ESE,19.6,27.6,N/A,,Clear,120,2013-05-03 05:35:00
11:55 PM,50.0,21.2,32,30.35,10.0,ESE,21.9,29.9,N/A,,Clear,110,2013-05-03 05:55:00